Location: ??????
(55.2000°N, 38.3000°E)
Time: 00:26:32
(UTC+00:00)

Meteor 2-5 Rocket - Pass Details

Date: 15 November 2025
Orbit: 832 x 911 km, 81.2° (Epoch: 12 December)

Event Time Altitude Azimuth Distance (km) Brightness Sun altitude
Exits shadow 01:36:56 41° 174° (S) 1,275 4.5 -28.5°
Maximum altitude 01:39:03 74° 100° (E) 928 3.9 -28.2°
Drops below altitude 10° 01:44:48 10° 17° (NNE) 2,538 6.4 -27.4°
Sets 01:47:14 0° 16° (NNE) 3,468 7.2 -27.1°
